Вернуться в каталог

FENGYUN 1C DEB

АктивенSSO
NORAD 30115·DEBRIS·🇨🇳 China

Запущен May 10, 1999 с Taiyuan Satellite Launch Center

Loading…

Ближайшие Пролёты (ближайшие 24 часа)

TLE

СвежийSource: Space-Track

Эпоха: Sep 14, 2026, 02:03 UTC

1 30115U 99025RU  26257.08584628  .00001169  00000-0  54961-3 0  9993
2 30115  98.6017 282.1356 0065820 345.2316  81.4491 14.20749943 12378

Отслеживайте FENGYUN 1C DEB в реальном времени с AllMySat

Download on the App Store